Location: Canazei
(46.4667°N, 11.7667°E)
Time: 05:03:11
(UTC+00:00)

Cosmos 1356 Rocket - Pass Details

Date: 21 April 2021
Orbit: 543 x 598 km, 81.2° (Epoch: 10 May)

Event Time Altitude Azimuth Distance (km) Brightness Sun altitude
Rises 02:49:59 0° 340° (NNW) 2,763 7.1 -14.0°
Reaches altitude 10° 02:52:18 10° 331° (NNW) 1,871 6.1 -13.6°
Maximum altitude 02:56:01 33° 267° (W) 968 4.1 -13.1°
Enters shadow 02:58:39 17° 211° (SSW) 1,497 5.0 -12.7°
